[[{"header":{"parameterUnit":"m.s-1","parameterCategory":1,"la1":30.2991,"la2":30.254,"lo1":-89.0895,"lo2":-89.0444,"dy":0.0017,"dx":0.0017,"nx":28,"ny":28,"refTime":"2025-04-24T03:00:00:Z","depth":0,"parameterNumber":2,"parameterNumberName":"U-component_of_WINDS"},"data":[0,0,0,0,0,0,0,0,0,0,0,0,0,0,0,0,0,0,0,0,0,0,0,0,0,0,0,0,0,0,0,0,0,0,0,0,0,0,0,0,0,0,0,0,0,0,0,0,0,0,0,0,0,0,0,0,0,0,-2.2864,-2.2865,0,-2.2962,-2.2964,-2.2965,-2.2973,-2.2972,-2.2971,-2.297,-2.3071,-2.3075,-2.3078,0,0,0,0,0,0,0,0,0,0,0,0,0,-2.2685,-2.2688,-2.2864,-2.2865,-2.2866,-2.2962,-2.2964,-2.2965,-2.2973,-2.2972,-2.2971,-2.297,-2.307,-2.3074,-2.3079,0,0,0,0,0,0,0,0,0,0,0,0,0,-2.2771,-2.2689,-2.2864,-2.2882,-2.2885,-2.2962,-2.2964,-2.2965,-2.2974,-2.2972,-2.2971,-2.2969,-2.3069,-2.3074,-2.3079,-2.3145,0,0,-2.3096,-2.3099,0,0,0,0,0,0,0,0,-2.2766,-2.2777,-2.2878,-2.2881,-2.2884,-2.2954,-2.2938,-2.3026,-2.2974,-2.294,-2.297,-2.2968,-2.3034,-2.3042,-2.3064,-2.315,-2.3154,-2.3097,-2.31,-2.3102,-2.3104,0,0,0,0,0,0,0,-2.276,-2.2773,-2.2903,-2.288,-2.2883,-2.2886,-2.2897,-2.2954,-2.2994,-2.2943,-2.2944,-2.2955,-2.3035,-2.3058,-2.3066,-2.3155,-2.3097,-2.3101,-2.3105,-2.3107,-2.3302,-2.3303,0,0,0,0,0,0,-2.275,-2.2768,-2.29,-2.2906,-2.282,-2.2891,-2.2902,-2.2933,-2.2994,-2.3002,-2.2956,-2.2955,-2.305,-2.306,-2.307,-2.3151,-2.3102,-2.3108,-2.3111,-2.33,-2.3302,-2.3304,0,0,0,0,0,0,-2.2747,-2.2762,-2.2896,-2.2837,-2.2855,-2.2895,-2.293,-2.2936,-2.2959,-2.3004,-2.3011,-2.2973,-2.3049,-2.3062,-2.3127,-2.3155,-2.311,-2.3115,-2.3298,-2.3301,-2.3303,-2.3314,0,0,0,0,0,0,-2.2741,-2.2761,-2.2785,-2.2838,-2.2858,-2.295,-2.2932,-2.2939,-2.2969,-2.2968,-2.3022,-2.3029,-2.3049,-2.3118,-2.3132,-2.3161,-2.3119,-2.3295,-2.3299,-2.3302,-2.3311,-2.3317,-2.3321,0,0,0,0,0,-2.2735,-2.2784,-2.2787,-2.2802,-2.2889,-2.2952,-2.2963,-2.2985,-2.2971,-2.2997,-2.3026,-2.3027,-2.315,-2.3125,-2.314,-2.3172,-2.3294,-2.3298,-2.3302,-2.3309,-2.3315,-2.3321,0,0,0,0,0,0,-2.2734,-2.2791,-2.2795,-2.2862,-2.2902,-2.2953,-2.2986,-2.2991,-2.3036,-2.3033,-2.3059,-2.3071,-2.3134,-2.316,-2.3131,-2.3239,-2.322,-2.3228,-2.322,-2.3227,-2.3232,-2.3224,-2.3124,0,0,0,0,0,-2.2741,-2.2787,-2.2835,-2.289,-2.291,-2.2945,-2.2973,-2.2986,-2.3028,-2.3045,-2.3079,-2.312,-2.3168,-2.3199,-2.3246,-2.3315,-2.3327,-2.3345,-2.335,-2.3354,-2.336,-2.34,-2.3408,-2.3318,-2.3318,-2.3318,0,0,-2.2757,-2.2795,-2.2822,-2.2891,-2.2923,-2.297,-2.2959,-2.3009,-2.3044,-2.3053,-2.3116,-2.3142,-2.319,-2.3258,-2.3289,-2.3281,-2.3388,-2.3359,-2.3362,-2.3366,-2.3405,-2.3413,-2.3421,-2.3321,-2.332,-2.332,0,0,-2.2811,-2.2843,-2.2893,-2.2926,-2.2976,-2.2999,-2.3011,-2.3062,-2.308,-2.3143,-2.3151,-2.3194,-2.3276,-2.331,-2.3338,-2.3407,-2.341,-2.3421,-2.3448,-2.3486,-2.3493,-2.35,-2.3525,-2.3533,-2.3427,-2.3427,-2.3427,0,-2.2824,-2.2895,-2.2918,-2.2968,-2.2999,-2.301,-2.3061,-2.3092,-2.3154,-2.3175,-2.3165,-2.3269,-2.3302,-2.3378,-2.3395,-2.3418,-2.3433,-2.3415,-2.349,-2.3497,-2.3504,-2.3527,-2.3537,-2.3428,-2.3428,-2.3428,-2.3428,0,-2.291,-2.2959,-2.2993,-2.3054,-2.3088,-2.3139,-2.317,-2.3202,-2.3214,-2.3238,-2.3303,-2.3344,-2.3399,-2.3418,-2.3429,-2.3497,-2.349,-2.3485,-2.3466,-2.3513,-2.3536,-2.3545,-2.343,-2.343,-2.3429,-2.3429,0,0,-2.2963,-2.3037,-2.3049,-2.3077,-2.3133,-2.3172,-2.3224,-2.3278,-2.3306,-2.3349,-2.3393,-2.3463,-2.3459,-2.3491,-2.3507,-2.3541,-2.3593,-2.3532,-2.3533,-2.3541,-2.367,-2.3673,-2.3684,-2.3596,-2.3598,-2.3599,-2.3666,0,-2.3023,-2.3114,-2.3137,-2.3216,-2.3262,-2.3274,-2.3319,-2.3359,-2.3384,-2.3428,-2.3455,-2.3504,-2.3495,-2.3515,-2.3549,-2.3579,-2.3619,-2.3575,-2.3638,-2.364,-2.3625,-2.3696,-2.3699,-2.376,-2.3675,-2.3677,-2.3678,0,-2.3104,-2.3149,-2.3232,-2.3284,-2.3304,-2.3344,-2.3397,-2.3438,-2.3484,-2.35,-2.3536,-2.3549,-2.3604,-2.3584,-2.366,-2.363,-2.3657,-2.3676,-2.3679,-2.3685,-2.3661,-2.3703,-2.378,-2.3789,-2.3692,-2.3691,-2.369,0,-2.3135,-2.3217,-2.3277,-2.3301,-2.3362,-2.339,-2.3418,-2.3462,-2.3494,-2.354,-2.3561,-2.3613,-2.3642,-2.3682,-2.3709,-2.3691,-2.3784,-2.3765,-2.3799,-2.3798,-2.3817,-2.3815,-2.3898,-2.3835,-2.3835,-2.3835,-2.3835,0,-2.3198,-2.3249,-2.3292,-2.3329,-2.3386,-2.3413,-2.3469,-2.3497,-2.3537,-2.358,-2.3594,-2.3635,-2.3668,-2.3713,-2.3734,-2.3795,-2.3808,-2.3823,-2.3827,-2.3821,-2.3819,-2.3839,-2.3835,-2.3837,-2.3837,-2.3836,-2.3836,0,-2.3242,-2.3273,-2.334,-2.3393,-2.3408,-2.3448,-2.3494,-2.3531,-2.3557,-2.3611,-2.3626,-2.3667,-2.3721,-2.3752,-2.382,-2.3835,-2.3902,-2.3905,-2.3886,-2.3888,-2.392,-2.3917,-2.4019,-2.4034,-2.3961,-2.3961,-2.3962,0,-2.328,-2.3319,-2.3377,-2.3407,-2.3435,-2.3483,-2.3516,-2.3544,-2.3578,-2.3634,-2.3665,-2.372,-2.3765,-2.3852,-2.3888,-2.394,-2.3945,-2.3977,-2.3953,-2.3945,-2.3945,-2.3943,-2.3947,-2.3981,-2.3981,-2.3982,-2.3982,0,-2.3345,-2.3359,-2.3405,-2.3457,-2.3496,-2.3538,-2.3581,-2.3605,-2.364,-2.3678,-2.3733,-2.3769,-2.3839,-2.3894,-2.395,-2.3979,-2.3987,-2.399,-2.4001,-2.3994,-2.3981,-2.3989,-2.3897,-2.3987,-2.3987,-2.3986,-2.3986,-2.3986,-2.3387,-2.3423,-2.347,-2.3521,-2.3556,-2.3596,-2.3633,-2.3664,-2.3711,-2.377,-2.3785,-2.3844,-2.3891,-2.3967,-2.3997,-2.4044,-2.4038,-2.4053,-2.4057,-2.406,-2.4062,-2.3975,-2.4054,-2.4054,-2.4054,-2.4054,-2.4054,0,-2.3453,-2.3484,-2.3531,-2.359,-2.3631,-2.3635,-2.3683,-2.3717,-2.3768,-2.3811,-2.3856,-2.3921,-2.3975,-2.4016,-2.4071,-2.4101,-2.4106,-2.4114,-2.4112,-2.4119,-2.4063,-2.4049,-2.4109,-2.4109,-2.4109,-2.4109,-2.4109,-2.4109,-2.3492,-2.3553,-2.3572,-2.3651,-2.3682,-2.3739,-2.3766,-2.3803,-2.3838,-2.3909,-2.3954,-2.398,-2.4023,-2.4082,-2.4132,-2.4143,-2.4162,-2.417,-2.4181,-2.4129,-2.4123,-2.4117,-2.4103,-2.4174,-2.4174,-2.4233,-2.4233,-2.4234]},{"header":{"parameterUnit":"m.s-1","parameterCategory":1,"la1":30.2991,"la2":30.254,"lo1":-89.0895,"lo2":-89.0444,"dy":0.0017,"dx":0.0017,"nx":28,"ny":28,"refTime":"2025-04-24T03:00:00:Z","depth":0,"parameterNumber":3,"parameterNumberName":"V-component_of_WINDS"},"data":[0,0,0,0,0,0,0,0,0,0,0,0,0,0,0,0,0,0,0,0,0,0,0,0,0,0,0,0,0,0,0,0,0,0,0,0,0,0,0,0,0,0,0,0,0,0,0,0,0,0,0,0,0,0,0,0,0,0,3.7309,3.7309,0,3.7336,3.7336,3.7336,3.7291,3.7289,3.7288,3.7286,3.7311,3.7313,3.7315,0,0,0,0,0,0,0,0,0,0,0,0,0,3.7216,3.7218,3.7309,3.7309,3.731,3.7336,3.7336,3.7336,3.7291,3.7289,3.7287,3.7286,3.731,3.7313,3.7315,0,0,0,0,0,0,0,0,0,0,0,0,0,3.7251,3.7218,3.7309,3.729,3.7289,3.7336,3.7336,3.7336,3.7292,3.7289,3.7287,3.7285,3.7309,3.7312,3.7315,3.7381,0,0,3.7325,3.7326,0,0,0,0,0,0,0,0,3.7249,3.7254,3.7293,3.7292,3.729,3.7308,3.7312,3.7351,3.7292,3.729,3.7286,3.7284,3.7311,3.7314,3.7324,3.7382,3.7383,3.7325,3.7327,3.7328,3.7329,0,0,0,0,0,0,0,3.7246,3.7253,3.7319,3.7293,3.7292,3.728,3.7282,3.7319,3.7313,3.729,3.7287,3.7291,3.731,3.7321,3.7324,3.7383,3.7325,3.7328,3.733,3.7331,3.7496,3.7498,0,0,0,0,0,0,3.7247,3.7251,3.7318,3.732,3.7263,3.7283,3.7286,3.7304,3.7313,3.7312,3.7293,3.7289,3.7317,3.7321,3.7325,3.7402,3.7328,3.7331,3.7333,3.7493,3.7496,3.7499,0,0,0,0,0,0,3.7245,3.7253,3.7317,3.7285,3.7292,3.7287,3.7308,3.7306,3.7317,3.7315,3.7313,3.7306,3.7315,3.7321,3.7367,3.7402,3.7333,3.7335,3.749,3.7494,3.7497,3.7557,0,0,0,0,0,0,3.7242,3.7253,3.7278,3.7286,3.7294,3.736,3.731,3.7308,3.7323,3.7318,3.7326,3.7325,3.7314,3.7363,3.737,3.7405,3.7338,3.7487,3.7492,3.7496,3.7551,3.7562,3.7571,0,0,0,0,0,3.7239,3.7293,3.728,3.7288,3.7326,3.7362,3.7367,3.7354,3.7326,3.7351,3.735,3.7325,3.7397,3.7368,3.7376,3.7412,3.7485,3.749,3.7496,3.7547,3.756,3.7571,0,0,0,0,0,0,3.7288,3.7294,3.7279,3.7337,3.735,3.7355,3.7386,3.7367,3.7387,3.7382,3.7363,3.7366,3.7416,3.7419,3.7386,3.7476,3.7436,3.7444,3.7472,3.7484,3.7494,3.7492,3.7341,0,0,0,0,0,3.7306,3.7336,3.7339,3.739,3.7397,3.7391,3.7406,3.7395,3.7407,3.7412,3.7414,3.7425,3.7451,3.7468,3.7491,3.7552,3.7553,3.7581,3.759,3.7598,3.7605,3.7637,3.765,3.7517,3.7517,3.7517,0,0,3.7343,3.7349,3.7369,3.74,3.7408,3.7439,3.7395,3.743,3.7452,3.7416,3.7461,3.7463,3.7475,3.7529,3.7553,3.7533,3.7642,3.7605,3.7612,3.7614,3.7644,3.7657,3.7668,3.7521,3.752,3.752,0,0,3.7425,3.7433,3.7477,3.7487,3.7501,3.7496,3.7507,3.7515,3.7515,3.756,3.7534,3.756,3.7604,3.7614,3.7624,3.7711,3.769,3.7719,3.777,3.7802,3.7812,3.7821,3.7852,3.7863,3.7726,3.7726,3.7726,0,3.7468,3.7515,3.7501,3.7538,3.7552,3.7522,3.7566,3.7576,3.7596,3.7606,3.7584,3.7639,3.7645,3.7701,3.7722,3.7732,3.7743,3.7718,3.7812,3.7821,3.7829,3.7858,3.787,3.773,3.7729,3.7729,3.7729,0,3.7568,3.76,3.7634,3.7656,3.7673,3.7713,3.7705,3.7724,3.7712,3.7709,3.7755,3.7761,3.7785,3.7798,3.7785,3.7852,3.784,3.7815,3.7774,3.7846,3.7873,3.7884,3.7735,3.7733,3.7732,3.7732,0,0,3.7681,3.7696,3.7708,3.7718,3.7732,3.7756,3.7795,3.7819,3.7836,3.7852,3.7883,3.7921,3.7899,3.7911,3.7899,3.7927,3.7996,3.7899,3.7899,3.7917,3.807,3.8089,3.8102,3.7982,3.7984,3.7986,3.8069,0,3.7763,3.7831,3.782,3.7885,3.7915,3.7887,3.792,3.7932,3.7931,3.7955,3.7954,3.7981,3.7949,3.7957,3.7983,3.7982,3.8027,3.7976,3.801,3.8012,3.8008,3.8116,3.8136,3.8214,3.808,3.8082,3.8083,0,3.7868,3.7889,3.7957,3.7967,3.7979,3.8009,3.8031,3.8055,3.8067,3.8064,3.8079,3.8062,3.81,3.8059,3.8111,3.8076,3.809,3.8091,3.8094,3.8096,3.8051,3.8121,3.8239,3.8251,3.8099,3.8098,3.8097,0,3.7944,3.7989,3.8036,3.8045,3.8057,3.8079,3.8085,3.8095,3.8111,3.813,3.8139,3.8162,3.8174,3.8192,3.8182,3.8153,3.8235,3.8193,3.8233,3.8233,3.8251,3.825,3.8372,3.826,3.826,3.826,3.826,0,3.8037,3.808,3.807,3.8099,3.8146,3.8132,3.8179,3.8181,3.8191,3.8219,3.8196,3.8223,3.8208,3.8233,3.8225,3.8269,3.8275,3.8273,3.827,3.8275,3.8275,3.8283,3.8277,3.8263,3.8262,3.8262,3.8261,0,3.813,3.8125,3.8174,3.8182,3.8185,3.8219,3.8226,3.8252,3.825,3.8286,3.8293,3.8289,3.8318,3.8309,3.834,3.8335,3.839,3.838,3.8386,3.8384,3.8424,3.842,3.8555,3.8572,3.8449,3.8451,3.8452,0,3.8189,3.8222,3.8234,3.8252,3.826,3.8288,3.8305,3.8292,3.831,3.8327,3.8352,3.8379,3.8399,3.8447,3.8446,3.8469,3.846,3.8505,3.8463,3.8467,3.846,3.8459,3.8462,3.8514,3.8515,3.8516,3.8517,0,3.8296,3.8292,3.8317,3.8341,3.8362,3.838,3.8396,3.8411,3.84,3.8421,3.8451,3.8467,3.8499,3.8526,3.8548,3.8553,3.8533,3.8531,3.8541,3.8546,3.8548,3.8548,3.8409,3.8528,3.8527,3.8526,3.8525,3.8525,3.8374,3.8401,3.8414,3.8443,3.8454,3.847,3.8495,3.8496,3.8521,3.8547,3.8538,3.8572,3.8583,3.8611,3.8618,3.8644,3.8627,3.8642,3.8646,3.8649,3.8655,3.8545,3.8648,3.8648,3.8648,3.8647,3.8647,0,3.8479,3.8486,3.8512,3.8536,3.8559,3.8539,3.8556,3.8576,3.8607,3.8619,3.8641,3.8675,3.8701,3.8703,3.8727,3.8747,3.8739,3.8754,3.8752,3.8754,3.8669,3.8658,3.8761,3.8761,3.8761,3.8761,3.8761,3.8761,3.8536,3.8582,3.858,3.8631,3.8638,3.8672,3.8683,3.8697,3.8707,3.8747,3.8769,3.877,3.8778,3.8803,3.8826,3.8826,3.8836,3.8854,3.8851,3.8771,3.876,3.8749,3.8738,3.8857,3.8857,3.8934,3.8934,3.8935]}]]